Location: Bacea
(45.9500°N, 22.6667°E)
Time: 11:40:03
(UTC+00:00)

Cosmos 2263 Rocket - Pass Details

Date: 02 June 2022
Orbit: 825 x 847 km, 71.0° (Epoch: 30 June)

Event Time Altitude Azimuth Distance (km) Brightness Sun altitude
Rises 19:42:35 0° 321° (NW) 3,376 7.5 -12.2°
Reaches altitude 10° 19:45:34 10° 306° (NW) 2,435 5.9 -12.5°
Maximum altitude 19:49:36 21° 259° (W) 1,779 4.2 -13.0°
Drops below altitude 10° 19:53:38 10° 212° (SSW) 2,420 4.4 -13.4°
Enters shadow 19:56:09 - 199° (SSW) 3,200 4.9 -13.7°
